Regional Weather Roundup
Issued by NWS

Home | Current Version | Previous Version | Text Only | Print | Product List | Glossary Off
Versions: 1 2 3 4 5 6 7 8 9 10 11 12 13 14 15 16 17 18 19 20 21 22 23 24 25 26 27 28 29 30 31 32 33 34 35 36 37 38 39 40 41 42 43 44 45 46 47 48 49 50

000
ASUS43 KLOT 291108
RWRIL

ILLINOIS REGIONAL WEATHER ROUNDUP
NATIONAL WEATHER SERVICE CHICAGO/ROMEOVILLE IL
600 AM CDT SUN MAR 29 2015

NOTE: "FAIR" INDICATES FEW OR NO CLOUDS BELOW 12,000 FEET WITH NO
SIGNIFICANT WEATHER AND/OR OBSTRUCTIONS TO VISIBILITY.

* THESE STATIONS ARE NOT UNDER NWS QUALITY CONTROL. THEY ALSO MAY NOT
  REPORT WEATHER SUCH AS PRECIPITATION OR FOG.

ILZ001-002-007-009-015-016-024-291200-
NORTHWEST ILLINOIS

CITY           SKY/WX    TMP DP  RH WIND       PRES   REMARKS
MOLINE         CLEAR     33  19  56 S10       30.08R WCI  25
STERLING*      PTCLDY    30  19  64 S6        30.09R WCI  24
SAVANNA*       CLEAR     31  20  63 S13       30.09R WCI  21
$$

ILZ003-004-008-010-011-017-018-291200-
NORTH CENTRAL ILLINOIS

CITY           SKY/WX    TMP DP  RH WIND       PRES   REMARKS
ROCKFORD       PTCLDY    29  18  63 S14       30.10F WCI  18
FREEPORT*      PTCLDY    29  20  68 S16G23    30.08S WCI  17
ROCHELLE*      PTCLDY    27  20  75 S14       30.10F WCI  16
DE KALB*       PTCLDY    25  19  76 S12       30.11F WCI  14
PERU*          CLEAR     30  21  70 S14       30.12F WCI  19
$$

ILZ005-006-012>014-019>023-291200-
NORTHEAST ILLINOIS

CITY           SKY/WX    TMP DP  RH WIND       PRES   REMARKS
CHICAGO-OHARE  MOCLDY    30  14  51 S13       30.13F WCI  20
CHICAGO-MIDWAY MOCLDY    31  15  52 S10       30.16F WCI  22
AURORA         PTCLDY    29  17  61 S13       30.12F WCI  19
LANSING*       PTCLDY    27  15  61 S10       30.18F WCI  18
JOLIET*        PTCLDY    31  19  61 S8        30.16F WCI  23
WAUKEGAN       MOCLDY    28  14  55 S14       30.09F WCI  17
DUPAGE AIRPORT PTCLDY    28  16  60 S13       30.12F WCI  17
KANKAKEE*      PTCLDY    28  19  67 S12       30.18F WCI  18
WHEELING       PTCLDY    29  14  53 S9        30.14F WCI  20
MORRIS*        CLEAR     26  19  73 S10       30.13F WCI  17
ROMEOVILLE*    PTCLDY    27  18  68 S12       30.15F WCI  16
NORTHERLY ISL    N/A     31  13  47 S14         N/A  WCI  21
$$

LMZ740>746-291200-
SOUTHERN LAKE MICHIGAN

STATION/POSITION SKY/WX   TEMP    WIND        PRES    VSBY  WAVE
                          AIR SEA DIR/SP/G                  HT/PER
                          (F)     (DEG/KT/KT) (MB)    (MI)  (FT/S)
HARRISON CRIB              31     180/ 25/ 29   N/A
BURNHAM HARBOR             31     190/ 11/ 14   N/A
BURNS HARBOR               29     180/ 11/ 20 1022.7F
MICHIGAN CITY              28     150/ 11/ 15   N/A
$$

ILZ025>027-034>036-040-047-049-050-058-095>099-291200-
WEST-CENTRAL ILLINOIS

CITY           SKY/WX    TMP DP  RH WIND       PRES   REMARKS
QUINCY         CLEAR     35  24  64 S13       30.07F WCI  26
GALESBURG*     CLEAR     31  22  69 S10       30.09R WCI  22
MACOMB*        CLEAR     31  23  71 S14       30.10F WCI  21
JACKSONVILLE*  CLEAR     34  22  61 SE13G20   30.13F WCI  25
PITTSFIELD*    CLEAR     33  25  73 SE14      30.10F WCI  23
$$

ILZ028>032-037-038-041>044-048-051>054-059>061-291200-
CENTRAL ILLINOIS

CITY           SKY/WX    TMP DP  RH WIND       PRES   REMARKS
PONTIAC        CLEAR     29  22  75 S14       30.16F WCI  18
BLOOMINGTON    PTCLDY    29  22  75 S18       30.16F WCI  17
DECATUR        PTCLDY    31  20  63 S14       30.19F WCI  21
PEORIA         CLEAR     31  21  66 S16G24    30.12F WCI  20
LACON*         PTCLDY    31  18  59 S13       30.11F WCI  21
LINCOLN*       CLEAR     32  23  69 S10       30.18F WCI  24
SPRINGFIELD    CLEAR     32  21  64 S16       30.16F WCI  21
TAYLORVILLE    CLEAR     32  21  64 S13       30.19F WCI  22
$$

ILZ033-039-045-046-055>057-062-063-291200-
EAST-CENTRAL ILLINOIS

CITY           SKY/WX    TMP DP  RH WIND       PRES   REMARKS
CHAMPAIGN      CLEAR     28  20  71 S12       30.21S WCI  18
DANVILLE*      PTCLDY    28  19  70 S8        30.20S WCI  19
RANTOUL*       PTCLDY    27  22  80 S9        30.21R WCI  18
MATTOON        CLEAR     30  19  63 S13       30.22S WCI  20
PARIS*         CLEAR     28  23  82 SE8       30.25S WCI  19
$$

ILZ079-100>102-291200-
SOUTHWEST ILLINOIS

CITY           SKY/WX    TMP DP  RH WIND       PRES   REMARKS
ALTON          CLEAR     32  16  51 SE9       30.19S WCI  24
BELLEVILLE     CLEAR     30  21  67 VRB5      30.20S WCI  26
CAHOKIA*       CLEAR     33  20  58 SE8       30.19F WCI  26
SPARTA*        CLEAR     30  20  65 SE7       30.23S WCI  23
$$

ILZ064>066-069>071-074>076-080>082-084>086-088>090-092>094-291200-
SOUTH-CENTRAL ILLINOIS

CITY           SKY/WX    TMP DP  RH WIND       PRES   REMARKS
CARBONDALE     CLEAR     30  18  60 S6        30.25R WCI  24
CAIRO*         CLEAR     35  21  56 SE13      30.25F WCI  26
EFFINGHAM*     CLEAR     31  17  58 SE7       30.26S WCI  24
MARION         CLEAR     32  19  59 SE7       30.25S WCI  26
MT. VERNON     CLEAR     30  18  59 SE7       30.25S WCI  23
CENTRALIA*     CLEAR     31  20  64 SE8       30.24R WCI  23
SALEM*         CLEAR     32  20  61 SE6       30.23S WCI  27
METROPOLIS*    CLEAR     33  23  65 SE6       30.26S WCI  28
$$

ILZ067-068-072-073-078-083-087-091-291200-
SOUTHEAST ILLINOIS

CITY           SKY/WX    TMP DP  RH WIND       PRES   REMARKS
LAWRENCEVILLE  CLEAR     28  20  71 S8        30.28S WCI  20
FLORA*         CLEAR     28  22  80 SE8       30.25F WCI  20
FAIRFIELD*     CLEAR     31  22  68 SE3       30.26R
HARRISBURG*    CLEAR     29  24  81 CALM      30.29R
ROBINSON*      CLEAR     27  20  75 SE8       30.28R WCI  19
CARMI*         CLEAR     27  22  82 SE6       30.27S WCI  21
$$

ABBREVIATIONS USED IN REMARKS
   TC - TEMPERATURE IN CELSIUS
  WCI - WIND CHILL INDEX
   HX - HEAT INDEX
  VSB - VISIBILITY
$$




USA.gov is the U.S. government's official web portal to all federal, state and local government web resources and services.